Location: Alpine
(43.1636°N, 111.0180°W)
Time: 04:37:46
(UTC+00:00)

Tiros 1 despin weight - Pass Details

Date: 31 May 2022
Orbit: 591 x 639 km, 48.2° (Epoch: 30 June)

Event Time Altitude Azimuth Distance (km) Brightness Sun altitude
Rises 21:51:19 0° 194° (SSW) 2,900 ? 52.5°
Reaches altitude 10° 21:54:23 10° 173° (S) 1,988 ? 52.0°
Maximum altitude 21:57:12 16° 135° (SE) 1,613 ? 51.6°
Drops below altitude 10° 22:00:00 10° 96° (E) 1,977 ? 51.1°
Sets 22:03:02 0° 75° (ENE) 2,875 ? 50.6°
